Regional Weather Roundup
Issued by NWS Northern Indiana

Home | Current Version | Previous Version | Graphics & Text | Print | Product List | Glossary On
Versions: 1 2 3 4 5 6 7 8 9 10 11 12 13 14 15 16 17 18 19 20 21 22 23 24 25 26 27 28 29 30 31 32 33 34 35 36 37 38 39 40 41 42 43 44 45 46 47 48 49 50
071
ASUS43 KIWX 190900
RWRIWX

KIWX WEATHER ROUNDUP
NATIONAL WEATHER SERVICE NORTHERN INDIANA
400 AM EST THU JAN 19 2017

NOTE: "FAIR" INDICATES FEW OR NO CLOUDS BELOW 12,000 FEET WITH NO
SIGNIFICANT WEATHER AND/OR OBSTRUCTIONS TO VISIBILITY.

* THESE STATIONS ARE NOT UNDER NWS QUALITY CONTROL. THEY ALSO MAY NOT
  REPORT WEATHER SUCH AS PRECIPITATION OR FOG.

INZ001>027-191000-
NORTHERN INDIANA

CITY           SKY/WX    TMP DP  RH WIND       PRES   REMARKS
SOUTH BEND     CLOUDY    34  32  92 S6        30.08S WCI  29
GOSHEN         CLOUDY    35  30  82 SW8       30.08F WCI  29
FORT WAYNE     CLOUDY    35  32  88 SW5       30.11S WCI  31

$$
INZ028>050-191000-
CENTRAL INDIANA

CITY           SKY/WX    TMP DP  RH WIND       PRES   REMARKS
LAFAYETTE      CLOUDY    34  34 100 VRB3      30.09S
KOKOMO*        CLOUDY    35  34  96 SW3       30.11S
MUNCIE*        CLOUDY    37  34  89 SW6       30.10S
INDIANAPOLIS   CLOUDY    36  33  89 SE5       30.09F

$$
MIZ043>046-050>051-056>058-064>065-071>073-077>080-191000-
SOUTHWEST LOWER MICHIGAN

CITY           SKY/WX    TMP DP  RH WIND       PRES   REMARKS
BATTLE CREEK   CLOUDY    34  32  92 W10       30.05F WCI  26
BENTON HARBOR  CLOUDY    37  33  85 S6        30.07S
COLDWATER*     CLOUDY    33  33 100 SW8       30.06F WCI  27
HILLSDALE*     CLOUDY    32  32 100 W7G16     30.05S FOG     WCI  26
HOLLAND        CLOUDY    38  35  89 SW14      30.04F
GRAND RAPIDS   CLOUDY    35  31  85 SW12      30.04R WCI  27
KALAMAZOO      CLOUDY    35  30  82 SW6       30.07R WCI  30
STURGIS*       CLOUDY    33  31  94 W10       30.06F WCI  25
THREE RIVERS*  CLOUDY    34  32  92 SW3       30.07F

$$
OHZ001>008-015>018-024>025-191000-
NORTHWEST OHIO

CITY           SKY/WX    TMP DP  RH WIND       PRES   REMARKS
DEFIANCE       CLOUDY    34  31  88 SW9       30.10F WCI  27
FINDLAY        CLOUDY    37  33  85 SW10      30.08F
TOLEDO EXPRESS CLOUDY    34  33  96 SW13      30.08S WCI  25
TOLEDO METCALF CLOUDY    36  34  92 SW13      30.09S
LIMA           CLOUDY    36  35  96 SW7       30.09F

$$
AND FOR LAKE MICHIGAN COASTAL AND OPEN LAKE BUOY OBSERVATIONS

STATION/POSITION TEMP    WIND        PRES    VSBY  WAVE
                 AIR SEA DIR/SP/G                  HT/PER
                 (F)     (DEG/KT/KT) (MB)    (MI)  (FT/S)
CALUMET HARBOR    35     180/  3/  6 1017.1F
BURNS HARBOR      36     180/  9/ 14 1018.3F

$$
&&




USA.gov is the U.S. government's official web portal to all federal, state and local government web resources and services.